"Time","Value","Approval","myLocation"
"2023-09-13 20:00",25.362,"Approved","OW388"
"2023-09-13 21:00",25.3849708269357,"Approved","OW388"
"2023-09-13 22:00",25.4099416538715,"Approved","OW388"
"2023-09-13 23:00",25.3479124808072,"Approved","OW388"
"2023-09-14 00:00",25.2938833077429,"Approved","OW388"
"2023-09-14 01:00",25.2418541346787,"Approved","OW388"
"2023-09-14 02:00",25.2038249616144,"Approved","OW388"
"2023-09-14 03:00",25.1797957885501,"Approved","OW388"
"2023-09-14 04:00",25.1557666154859,"Approved","OW388"
"2023-09-14 05:00",25.1367374424216,"Approved","OW388"
"2023-09-14 06:00",25.1197082693573,"Approved","OW388"
"2023-09-14 07:00",25.102679096293,"Approved","OW388"
"2023-09-14 08:00",25.0846499232288,"Approved","OW388"
"2023-09-14 09:00",25.0656207501645,"Approved","OW388"
"2023-09-14 10:00",25.1045915771002,"Approved","OW388"
"2023-09-14 11:00",25.277562404036,"Approved","OW388"
"2023-09-14 12:00",25.7655332309717,"Approved","OW388"
"2023-09-14 13:00",25.9395040579074,"Approved","OW388"
"2023-09-14 14:00",25.6894748848432,"Approved","OW388"
"2023-09-14 15:00",25.4754457117789,"Approved","OW388"
"2023-09-14 16:00",25.3374165387146,"Approved","OW388"
"2023-09-14 17:00",25.2753873656504,"Approved","OW388"
"2023-09-14 18:00",25.2083581925861,"Approved","OW388"
"2023-09-14 19:00",25.1563290195218,"Approved","OW388"
"2023-09-14 20:00",25.4582998464576,"Approved","OW388"
"2023-09-14 21:00",25.9222706733933,"Approved","OW388"
"2023-09-14 22:00",25.874241500329,"Approved","OW388"
"2023-09-14 23:00",25.6152123272648,"Approved","OW388"
"2023-09-15 00:00",25.4231831542005,"Approved","OW388"
"2023-09-15 01:00",25.3051539811362,"Approved","OW388"
"2023-09-15 02:00",25.2351248080719,"Approved","OW388"
"2023-09-15 03:00",25.1820956350077,"Approved","OW388"
"2023-09-15 04:00",25.1490664619434,"Approved","OW388"
"2023-09-15 05:00",25.1290372888791,"Approved","OW388"
"2023-09-15 06:00",25.1220081158149,"Approved","OW388"
"2023-09-15 07:00",25.1029789427506,"Approved","OW388"
"2023-09-15 08:00",25.0809497696863,"Approved","OW388"
"2023-09-15 09:00",25.0599205966221,"Approved","OW388"
"2023-09-15 10:00",25.1308914235578,"Approved","OW388"
"2023-09-15 11:00",25.2658622504935,"Approved","OW388"
"2023-09-15 12:00",25.3618330774293,"Approved","OW388"
"2023-09-15 13:00",25.329803904365,"Approved","OW388"
"2023-09-15 14:00",25.3247747313007,"Approved","OW388"
"2023-09-15 15:00",25.4457455582365,"Approved","OW388"
"2023-09-15 16:00",25.5107163851722,"Approved","OW388"
"2023-09-15 17:00",25.4106872121079,"Approved","OW388"
"2023-09-15 18:00",25.3376580390436,"Approved","OW388"
"2023-09-15 19:00",25.3276288659794,"Approved","OW388"
"2023-09-15 20:00",25.2845996929151,"Approved","OW388"
"2023-09-15 21:00",25.2605705198508,"Approved","OW388"
"2023-09-15 22:00",25.2425413467866,"Approved","OW388"
"2023-09-15 23:00",25.5225121737223,"Approved","OW388"
"2023-09-16 00:00",25.446483000658,"Approved","OW388"
"2023-09-16 01:00",25.3334538275938,"Approved","OW388"
"2023-09-16 02:00",25.2494246545295,"Approved","OW388"
"2023-09-16 03:00",25.1953954814652,"Approved","OW388"
"2023-09-16 04:00",25.161366308401,"Approved","OW388"
"2023-09-16 05:00",25.1493371353367,"Approved","OW388"
"2023-09-16 06:00",25.1213079622724,"Approved","OW388"
"2023-09-16 07:00",25.0982787892082,"Approved","OW388"
"2023-09-16 08:00",25.0782496161439,"Approved","OW388"
"2023-09-16 09:00",25.0612204430796,"Approved","OW388"
"2023-09-16 10:00",25.0451912700154,"Approved","OW388"
"2023-09-16 11:00",25.2181620969511,"Approved","OW388"
"2023-09-16 12:00",25.7121329238868,"Approved","OW388"
"2023-09-16 13:00",25.9001037508225,"Approved","OW388"
"2023-09-16 14:00",25.6550745777583,"Approved","OW388"
"2023-09-16 15:00",25.444045404694,"Approved","OW388"
"2023-09-16 16:00",25.3040162316297,"Approved","OW388"
"2023-09-16 17:00",25.2369870585655,"Approved","OW388"
"2023-09-16 18:00",25.1889578855012,"Approved","OW388"
"2023-09-16 19:00",25.1519287124369,"Approved","OW388"
"2023-09-16 20:00",25.1218995393727,"Approved","OW388"
"2023-09-16 21:00",25.1098703663084,"Approved","OW388"
"2023-09-16 22:00",25.1038411932441,"Approved","OW388"
"2023-09-16 23:00",25.0838120201799,"Approved","OW388"
"2023-09-17 00:00",25.0657828471156,"Approved","OW388"
"2023-09-17 01:00",25.0497536740513,"Approved","OW388"
"2023-09-17 02:00",25.0467245009871,"Approved","OW388"
"2023-09-17 03:00",25.0586953279228,"Approved","OW388"
"2023-09-17 04:00",25.3076661548585,"Approved","OW388"
"2023-09-17 05:00",25.2616369817943,"Approved","OW388"
"2023-09-17 06:00",25.18460780873,"Approved","OW388"
"2023-09-17 07:00",25.1295786356657,"Approved","OW388"
"2023-09-17 08:00",25.0905494626014,"Approved","OW388"
"2023-09-17 09:00",25.0615202895372,"Approved","OW388"
"2023-09-17 10:00",25.1814911164729,"Approved","OW388"
"2023-09-17 11:00",25.3254619434086,"Approved","OW388"
"2023-09-17 12:00",25.4124327703444,"Approved","OW388"
"2023-09-17 13:00",25.3694035972801,"Approved","OW388"
"2023-09-17 14:00",25.3513744242158,"Approved","OW388"
"2023-09-17 15:00",25.4653452511516,"Approved","OW388"
"2023-09-17 16:00",25.5323160780873,"Approved","OW388"
"2023-09-17 17:00",25.450286905023,"Approved","OW388"
"2023-09-17 18:00",25.4772577319588,"Approved","OW388"
"2023-09-17 19:00",25.5042285588945,"Approved","OW388"
"2023-09-17 20:00",25.4671993858302,"Approved","OW388"
"2023-09-17 21:00",25.408170212766,"Approved","OW388"
"2023-09-17 22:00",25.3591410397017,"Approved","OW388"
"2023-09-17 23:00",25.3361118666374,"Approved","OW388"
"2023-09-18 00:00",25.2970826935732,"Approved","OW388"
"2023-09-18 01:00",25.2640535205089,"Approved","OW388"
"2023-09-18 02:00",25.2430243474446,"Approved","OW388"
"2023-09-18 03:00",25.2259951743803,"Approved","OW388"
"2023-09-18 04:00",25.2109660013161,"Approved","OW388"
"2023-09-18 05:00",25.1959368282518,"Approved","OW388"
"2023-09-18 06:00",25.1829076551875,"Approved","OW388"
"2023-09-18 07:00",25.1728784821233,"Approved","OW388"
"2023-09-18 08:00",25.162849309059,"Approved","OW388"
"2023-09-18 09:00",25.1528201359947,"Approved","OW388"
"2023-09-18 10:00",25.2477909629305,"Approved","OW388"
"2023-09-18 11:00",25.6627617898662,"Approved","OW388"
"2023-09-18 12:00",26.2767326168019,"Approved","OW388"
"2023-09-18 13:00",26.4427034437377,"Approved","OW388"
"2023-09-18 14:00",26.1736742706734,"Approved","OW388"
"2023-09-18 15:00",26.0766450976091,"Approved","OW388"
"2023-09-18 16:00",25.9916159245449,"Approved","OW388"
"2023-09-18 17:00",25.8025867514806,"Approved","OW388"
"2023-09-18 18:00",25.6915575784163,"Approved","OW388"
"2023-09-18 19:00",25.8365284053521,"Approved","OW388"
"2023-09-18 20:00",25.7914992322878,"Approved","OW388"
"2023-09-18 21:00",25.6704700592235,"Approved","OW388"
"2023-09-18 22:00",25.5984408861592,"Approved","OW388"
"2023-09-18 23:00",25.531411713095,"Approved","OW388"
"2023-09-19 00:00",25.4973825400307,"Approved","OW388"
"2023-09-19 01:00",25.4593533669664,"Approved","OW388"
"2023-09-19 02:00",25.4263241939022,"Approved","OW388"
"2023-09-19 03:00",25.3932950208379,"Approved","OW388"
"2023-09-19 04:00",25.3712658477736,"Approved","OW388"
"2023-09-19 05:00",25.3542366747094,"Approved","OW388"
"2023-09-19 06:00",25.3402075016451,"Approved","OW388"
"2023-09-19 07:00",25.3261783285808,"Approved","OW388"
"2023-09-19 08:00",25.3101491555166,"Approved","OW388"
"2023-09-19 09:00",25.2931199824523,"Approved","OW388"
"2023-09-19 10:00",25.385090809388,"Approved","OW388"
"2023-09-19 11:00",25.5290616363238,"Approved","OW388"
"2023-09-19 12:00",25.5180324632595,"Approved","OW388"
"2023-09-19 13:00",25.4360032901952,"Approved","OW388"
"2023-09-19 14:00",25.3799741171309,"Approved","OW388"
"2023-09-19 15:00",25.3399449440667,"Approved","OW388"
"2023-09-19 16:00",25.3669157710024,"Approved","OW388"
"2023-09-19 17:00",25.5788865979381,"Approved","OW388"
"2023-09-19 18:00",25.5088574248739,"Approved","OW388"
"2023-09-19 19:00",25.4238282518096,"Approved","OW388"
"2023-09-19 20:00",25.3597990787453,"Approved","OW388"
"2023-09-19 21:00",25.3207699056811,"Approved","OW388"
"2023-09-19 22:00",25.3057407326168,"Approved","OW388"
"2023-09-19 23:00",25.2957115595525,"Approved","OW388"
"2023-09-20 00:00",25.2716823864883,"Approved","OW388"
"2023-09-20 01:00",25.252653213424,"Approved","OW388"
"2023-09-20 02:00",25.2416240403597,"Approved","OW388"
"2023-09-20 03:00",25.2275948672955,"Approved","OW388"
"2023-09-20 04:00",25.2205656942312,"Approved","OW388"
"2023-09-20 05:00",25.2225365211669,"Approved","OW388"
"2023-09-20 06:00",25.2195073481027,"Approved","OW388"
"2023-09-20 07:00",25.2094781750384,"Approved","OW388"
"2023-09-20 08:00",25.1984490019741,"Approved","OW388"
"2023-09-20 09:00",25.1844198289098,"Approved","OW388"
"2023-09-20 10:00",25.3283906558456,"Approved","OW388"
"2023-09-20 11:00",25.7323614827813,"Approved","OW388"
"2023-09-20 12:00",26.335332309717,"Approved","OW388"
"2023-09-20 13:00",26.4813031366528,"Approved","OW388"
"2023-09-20 14:00",26.2072739635885,"Approved","OW388"
"2023-09-20 15:00",26.1042447905242,"Approved","OW388"
"2023-09-20 16:00",26.03121561746,"Approved","OW388"
"2023-09-20 17:00",25.8451864443957,"Approved","OW388"
"2023-09-20 18:00",25.7051572713314,"Approved","OW388"
"2023-09-20 19:00",25.6061280982672,"Approved","OW388"
"2023-09-20 20:00",25.5560989252029,"Approved","OW388"
"2023-09-20 21:00",25.7900697521386,"Approved","OW388"
"2023-09-20 22:00",25.9140405790744,"Approved","OW388"
"2023-09-20 23:00",25.7580114060101,"Approved","OW388"
"2023-09-21 00:00",25.6219822329458,"Approved","OW388"
"2023-09-21 01:00",25.5449530598816,"Approved","OW388"
"2023-09-21 02:00",25.4759238868173,"Approved","OW388"
"2023-09-21 03:00",25.428894713753,"Approved","OW388"
"2023-09-21 04:00",25.3988655406887,"Approved","OW388"
"2023-09-21 05:00",25.3778363676245,"Approved","OW388"
"2023-09-21 06:00",25.3648071945602,"Approved","OW388"
"2023-09-21 07:00",25.3557780214959,"Approved","OW388"
"2023-09-21 08:00",25.3297488484317,"Approved","OW388"
"2023-09-21 09:00",25.3057196753674,"Approved","OW388"
"2023-09-21 10:00",25.2836905023031,"Approved","OW388"
"2023-09-21 11:00",25.2626613292389,"Approved","OW388"
"2023-09-21 12:00",25.2426321561746,"Approved","OW388"
"2023-09-21 13:00",25.2256029831103,"Approved","OW388"
"2023-09-21 14:00",25.2125738100461,"Approved","OW388"
"2023-09-21 15:00",25.2035446369818,"Approved","OW388"
"2023-09-21 16:00",25.1995154639175,"Approved","OW388"
"2023-09-21 17:00",25.1944862908533,"Approved","OW388"
"2023-09-21 18:00",25.189457117789,"Approved","OW388"
"2023-09-21 19:00",25.1764279447247,"Approved","OW388"
"2023-09-21 20:00",25.1903987716605,"Approved","OW388"
"2023-09-21 21:00",25.4203695985962,"Approved","OW388"
"2023-09-21 22:00",25.3623404255319,"Approved","OW388"
"2023-09-21 23:00",25.2863112524676,"Approved","OW388"
"2023-09-22 00:00",25.2502820794034,"Approved","OW388"
"2023-09-22 01:00",25.2122529063391,"Approved","OW388"
"2023-09-22 02:00",25.1852237332748,"Approved","OW388"
"2023-09-22 03:00",25.1721945602106,"Approved","OW388"
"2023-09-22 04:00",25.1701653871463,"Approved","OW388"
"2023-09-22 05:00",25.162136214082,"Approved","OW388"
"2023-09-22 06:00",25.1441070410178,"Approved","OW388"
"2023-09-22 07:00",25.1290778679535,"Approved","OW388"
"2023-09-22 08:00",25.1140486948892,"Approved","OW388"
"2023-09-22 09:00",25.102019521825,"Approved","OW388"
"2023-09-22 10:00",25.1959903487607,"Approved","OW388"
"2023-09-22 11:00",25.5919611756964,"Approved","OW388"
"2023-09-22 12:00",26.2039320026322,"Approved","OW388"
"2023-09-22 13:00",26.3669028295679,"Approved","OW388"
"2023-09-22 14:00",26.1058736565036,"Approved","OW388"
"2023-09-22 15:00",26.0228444834393,"Approved","OW388"
"2023-09-22 16:00",25.9708153103751,"Approved","OW388"
"2023-09-22 17:00",25.7807861373108,"Approved","OW388"
"2023-09-22 18:00",25.6627569642465,"Approved","OW388"
"2023-09-22 19:00",25.6857277911823,"Approved","OW388"
"2023-09-22 20:00",25.963698618118,"Approved","OW388"
"2023-09-22 21:00",25.9856694450537,"Approved","OW388"
"2023-09-22 22:00",25.8166402719895,"Approved","OW388"
"2023-09-22 23:00",25.6786110989252,"Approved","OW388"
"2023-09-23 00:00",25.5795819258609,"Approved","OW388"
"2023-09-23 01:00",25.5375527527967,"Approved","OW388"
"2023-09-23 02:00",25.4835235797324,"Approved","OW388"
"2023-09-23 03:00",25.4604944066681,"Approved","OW388"
"2023-09-23 04:00",25.4334652336039,"Approved","OW388"
"2023-09-23 05:00",25.4134360605396,"Approved","OW388"
"2023-09-23 06:00",25.3804068874753,"Approved","OW388"
"2023-09-23 07:00",25.3523777144111,"Approved","OW388"
"2023-09-23 08:00",25.3253485413468,"Approved","OW388"
"2023-09-23 09:00",25.3143193682825,"Approved","OW388"
"2023-09-23 10:00",25.3282901952183,"Approved","OW388"
"2023-09-23 11:00",25.314261022154,"Approved","OW388"
"2023-09-23 12:00",25.2812318490897,"Approved","OW388"
"2023-09-23 13:00",25.2532026760254,"Approved","OW388"
"2023-09-23 14:00",25.2301735029612,"Approved","OW388"
"2023-09-23 15:00",25.2151443298969,"Approved","OW388"
"2023-09-23 16:00",25.2211151568326,"Approved","OW388"
"2023-09-23 17:00",25.2610859837684,"Approved","OW388"
"2023-09-23 18:00",25.5130568107041,"Approved","OW388"
"2023-09-23 19:00",25.5650276376398,"Approved","OW388"
"2023-09-23 20:00",25.4899984645756,"Approved","OW388"
"2023-09-23 21:00",25.4009692915113,"Approved","OW388"
"2023-09-23 22:00",25.350940118447,"Approved","OW388"
"2023-09-23 23:00",25.3099109453828,"Approved","OW388"
"2023-09-24 00:00",25.2888817723185,"Approved","OW388"
"2023-09-24 01:00",25.2688525992542,"Approved","OW388"
"2023-09-24 02:00",25.25382342619,"Approved","OW388"
"2023-09-24 03:00",25.2507942531257,"Approved","OW388"
"2023-09-24 04:00",25.2337650800614,"Approved","OW388"
"2023-09-24 05:00",25.2367359069971,"Approved","OW388"
"2023-09-24 06:00",25.2367067339329,"Approved","OW388"
"2023-09-24 07:00",25.2156775608686,"Approved","OW388"
"2023-09-24 08:00",25.1916483878043,"Approved","OW388"
"2023-09-24 09:00",25.1706192147401,"Approved","OW388"
"2023-09-24 10:00",25.2955900416758,"Approved","OW388"
"2023-09-24 11:00",25.6495608686115,"Approved","OW388"
"2023-09-24 12:00",26.2525316955473,"Approved","OW388"
"2023-09-24 13:00",26.411502522483,"Approved","OW388"
"2023-09-24 14:00",26.1464733494187,"Approved","OW388"
"2023-09-24 15:00",26.0564441763545,"Approved","OW388"
"2023-09-24 16:00",25.8794150032902,"Approved","OW388"
"2023-09-24 17:00",25.7363858302259,"Approved","OW388"
"2023-09-24 18:00",25.6233566571617,"Approved","OW388"
"2023-09-24 19:00",25.5463274840974,"Approved","OW388"
"2023-09-24 20:00",25.5002983110331,"Approved","OW388"
"2023-09-24 21:00",25.4772691379689,"Approved","OW388"
"2023-09-24 22:00",25.4382399649046,"Approved","OW388"
"2023-09-24 23:00",25.3972107918403,"Approved","OW388"
"2023-09-25 00:00",25.382181618776,"Approved","OW388"
"2023-09-25 01:00",25.3481524457118,"Approved","OW388"
"2023-09-25 02:00",25.3351232726475,"Approved","OW388"
"2023-09-25 03:00",25.3090940995832,"Approved","OW388"
"2023-09-25 04:00",25.283064926519,"Approved","OW388"
"2023-09-25 05:00",25.2620357534547,"Approved","OW388"
"2023-09-25 06:00",25.2470065803904,"Approved","OW388"
"2023-09-25 07:00",25.2269774073262,"Approved","OW388"
"2023-09-25 08:00",25.2079482342619,"Approved","OW388"
"2023-09-25 09:00",25.1889190611976,"Approved","OW388"
"2023-09-25 10:00",25.1728898881334,"Approved","OW388"
"2023-09-25 11:00",25.1548607150691,"Approved","OW388"
"2023-09-25 12:00",25.1368315420048,"Approved","OW388"
"2023-09-25 13:00",25.1228023689406,"Approved","OW388"
"2023-09-25 14:00",25.1137731958763,"Approved","OW388"
"2023-09-25 15:00",25.106744022812,"Approved","OW388"
"2023-09-25 16:00",25.0967148497478,"Approved","OW388"
"2023-09-25 17:00",25.0886856766835,"Approved","OW388"
"2023-09-25 18:00",25.0996565036192,"Approved","OW388"
"2023-09-25 19:00",25.0936273305549,"Approved","OW388"
"2023-09-25 20:00",25.0865981574907,"Approved","OW388"
"2023-09-25 21:00",25.0875689844264,"Approved","OW388"
"2023-09-25 22:00",25.0805398113621,"Approved","OW388"
"2023-09-25 23:00",25.0625106382979,"Approved","OW388"
"2023-09-26 00:00",25.0464814652336,"Approved","OW388"
"2023-09-26 01:00",25.0334522921693,"Approved","OW388"
"2023-09-26 02:00",25.0724231191051,"Approved","OW388"
"2023-09-26 03:00",25.2863939460408,"Approved","OW388"
"2023-09-26 04:00",25.2533647729765,"Approved","OW388"
"2023-09-26 05:00",25.1913355999123,"Approved","OW388"
"2023-09-26 06:00",25.139306426848,"Approved","OW388"
"2023-09-26 07:00",25.1002772537837,"Approved","OW388"
"2023-09-26 08:00",25.0702480807195,"Approved","OW388"
"2023-09-26 09:00",25.0452189076552,"Approved","OW388"
"2023-09-26 10:00",25.0231897345909,"Approved","OW388"
"2023-09-26 11:00",25.1371605615267,"Approved","OW388"
"2023-09-26 12:00",25.6341313884624,"Approved","OW388"
"2023-09-26 13:00",25.8151022153981,"Approved","OW388"
"2023-09-26 14:00",25.5990730423338,"Approved","OW388"
"2023-09-26 15:00",25.4140438692696,"Approved","OW388"
"2023-09-26 16:00",25.2940146962053,"Approved","OW388"
"2023-09-26 17:00",25.236985523141,"Approved","OW388"
"2023-09-26 18:00",25.1829563500768,"Approved","OW388"
"2023-09-26 19:00",25.1419271770125,"Approved","OW388"
"2023-09-26 20:00",25.1058980039482,"Approved","OW388"
"2023-09-26 21:00",25.384868830884,"Approved","OW388"
"2023-09-26 22:00",25.5218396578197,"Approved","OW388"
"2023-09-26 23:00",25.3808104847554,"Approved","OW388"
"2023-09-27 00:00",25.2597813116912,"Approved","OW388"
"2023-09-27 01:00",25.1967521386269,"Approved","OW388"
"2023-09-27 02:00",25.1547229655626,"Approved","OW388"
"2023-09-27 03:00",25.1266937924984,"Approved","OW388"
"2023-09-27 04:00",25.1056646194341,"Approved","OW388"
"2023-09-27 05:00",25.0836354463698,"Approved","OW388"
"2023-09-27 06:00",25.0886062733055,"Approved","OW388"
"2023-09-27 07:00",25.0635771002413,"Approved","OW388"
"2023-09-27 08:00",25.035547927177,"Approved","OW388"
"2023-09-27 09:00",25.0115187541127,"Approved","OW388"
"2023-09-27 10:00",24.9884895810485,"Approved","OW388"
"2023-09-27 11:00",24.9654604079842,"Approved","OW388"
"2023-09-27 12:00",24.9484312349199,"Approved","OW388"
"2023-09-27 13:00",24.9344020618557,"Approved","OW388"
"2023-09-27 14:00",24.9283728887914,"Approved","OW388"
"2023-09-27 15:00",24.9253437157271,"Approved","OW388"
"2023-09-27 16:00",24.9243145426629,"Approved","OW388"
"2023-09-27 17:00",24.9222853695986,"Approved","OW388"
"2023-09-27 18:00",24.9172561965343,"Approved","OW388"
"2023-09-27 19:00",24.9282270234701,"Approved","OW388"
"2023-09-27 20:00",24.9141978504058,"Approved","OW388"
"2023-09-27 21:00",25.0041686773415,"Approved","OW388"
"2023-09-27 22:00",25.1681395042773,"Approved","OW388"
"2023-09-27 23:00",25.098110331213,"Approved","OW388"
"2023-09-28 00:00",25.0220811581487,"Approved","OW388"
"2023-09-28 01:00",24.9820519850844,"Approved","OW388"
"2023-09-28 02:00",24.9510228120202,"Approved","OW388"
"2023-09-28 03:00",24.9239936389559,"Approved","OW388"
"2023-09-28 04:00",24.9059644658916,"Approved","OW388"
"2023-09-28 05:00",24.8919352928274,"Approved","OW388"
"2023-09-28 06:00",24.8789061197631,"Approved","OW388"
"2023-09-28 07:00",24.8658769466988,"Approved","OW388"
"2023-09-28 08:00",24.8538477736346,"Approved","OW388"
"2023-09-28 09:00",24.8378186005703,"Approved","OW388"
"2023-09-28 10:00",24.873789427506,"Approved","OW388"
"2023-09-28 11:00",25.0447602544418,"Approved","OW388"
"2023-09-28 12:00",25.5307310813775,"Approved","OW388"
"2023-09-28 13:00",25.7027019083132,"Approved","OW388"
"2023-09-28 14:00",25.460672735249,"Approved","OW388"
"2023-09-28 15:00",25.2586435621847,"Approved","OW388"
"2023-09-28 16:00",25.1426143891204,"Approved","OW388"
"2023-09-28 17:00",25.0565852160562,"Approved","OW388"
"2023-09-28 18:00",24.9955560429919,"Approved","OW388"
"2023-09-28 19:00",24.9545268699276,"Approved","OW388"
"2023-09-28 20:00",24.9214976968633,"Approved","OW388"
"2023-09-28 21:00",24.8944685237991,"Approved","OW388"
"2023-09-28 22:00",24.8844393507348,"Approved","OW388"
"2023-09-28 23:00",24.9014101776705,"Approved","OW388"
"2023-09-29 00:00",25.1303810046063,"Approved","OW388"
"2023-09-29 01:00",25.069351831542,"Approved","OW388"
"2023-09-29 02:00",25.0103226584777,"Approved","OW388"
"2023-09-29 03:00",24.9602934854135,"Approved","OW388"
"2023-09-29 04:00",24.9192643123492,"Approved","OW388"
"2023-09-29 05:00",24.9022351392849,"Approved","OW388"
"2023-09-29 06:00",24.8822059662207,"Approved","OW388"
"2023-09-29 07:00",24.8581767931564,"Approved","OW388"
"2023-09-29 08:00",24.8361476200921,"Approved","OW388"
"2023-09-29 09:00",24.8181184470279,"Approved","OW388"
"2023-09-29 10:00",24.8020892739636,"Approved","OW388"
"2023-09-29 11:00",24.7850601008993,"Approved","OW388"
"2023-09-29 12:00",24.7690309278351,"Approved","OW388"
"2023-09-29 13:00",24.7550017547708,"Approved","OW388"
"2023-09-29 14:00",24.7479725817065,"Approved","OW388"
"2023-09-29 15:00",24.7409434086422,"Approved","OW388"
"2023-09-29 16:00",24.733914235578,"Approved","OW388"
"2023-09-29 17:00",24.7398850625137,"Approved","OW388"
"2023-09-29 18:00",24.7408558894494,"Approved","OW388"
"2023-09-29 19:00",24.8828267163852,"Approved","OW388"
"2023-09-29 20:00",24.9737975433209,"Approved","OW388"
"2023-09-29 21:00",24.9017683702566,"Approved","OW388"
"2023-09-29 22:00",24.8347391971924,"Approved","OW388"
"2023-09-29 23:00",24.7877100241281,"Approved","OW388"
"2023-09-30 00:00",24.7646808510638,"Approved","OW388"
"2023-09-30 01:00",24.7336516779996,"Approved","OW388"
"2023-09-30 02:00",24.7126225049353,"Approved","OW388"
"2023-09-30 03:00",24.698593331871,"Approved","OW388"
"2023-09-30 04:00",24.6875641588068,"Approved","OW388"
"2023-09-30 05:00",24.6785349857425,"Approved","OW388"
"2023-09-30 06:00",24.6965058126782,"Approved","OW388"
"2023-09-30 07:00",24.6824766396139,"Approved","OW388"
"2023-09-30 08:00",24.6694474665497,"Approved","OW388"
"2023-09-30 09:00",24.6584182934854,"Approved","OW388"
"2023-09-30 10:00",24.6453891204211,"Approved","OW388"
"2023-09-30 11:00",24.8253599473569,"Approved","OW388"
"2023-09-30 12:00",25.3283307742926,"Approved","OW388"
"2023-09-30 13:00",25.5123016012283,"Approved","OW388"
"2023-09-30 14:00",25.2812724281641,"Approved","OW388"
"2023-09-30 15:00",25.0772432550998,"Approved","OW388"
"2023-09-30 16:00",24.9512140820355,"Approved","OW388"
"2023-09-30 17:00",24.8731849089713,"Approved","OW388"
"2023-09-30 18:00",24.809155735907,"Approved","OW388"
"2023-09-30 19:00",24.7641265628427,"Approved","OW388"
"2023-09-30 20:00",24.7300973897785,"Approved","OW388"
"2023-09-30 21:00",24.9760682167142,"Approved","OW388"
"2023-09-30 22:00",24.9380390436499,"Approved","OW388"
"2023-09-30 23:00",24.8510098705857,"Approved","OW388"
"2023-10-01 00:00",24.8019806975214,"Approved","OW388"
"2023-10-01 01:00",24.7539515244571,"Approved","OW388"
"2023-10-01 02:00",24.7129223513929,"Approved","OW388"
"2023-10-01 03:00",24.6848931783286,"Approved","OW388"
"2023-10-01 04:00",24.6788640052643,"Approved","OW388"
"2023-10-01 05:00",24.6598348322,"Approved","OW388"
"2023-10-01 06:00",24.6438056591358,"Approved","OW388"
"2023-10-01 07:00",24.6307764860715,"Approved","OW388"
"2023-10-01 08:00",24.6187473130072,"Approved","OW388"
"2023-10-01 09:00",24.606718139943,"Approved","OW388"
"2023-10-01 10:00",24.5936889668787,"Approved","OW388"
"2023-10-01 11:00",24.5806597938144,"Approved","OW388"
"2023-10-01 12:00",24.5656306207502,"Approved","OW388"
"2023-10-01 13:00",24.5506014476859,"Approved","OW388"
"2023-10-01 14:00",24.5395722746216,"Approved","OW388"
"2023-10-01 15:00",24.5485431015574,"Approved","OW388"